Regional Weather Roundup
Issued by NWS Midland/Odessa, TX

Home | Current Version | Previous Version | Text Only | Print | Product List | Glossary On
Versions: 1 2 3 4 5 6 7 8 9 10 11 12 13 14 15 16 17 18 19 20 21 22 23 24 25 26 27 28 29 30 31 32 33 34 35 36 37 38 39 40 41 42 43 44 45 46 47 48 49 50
000
ASUS44 KMAF 080810
RWRMAF
MIDLAND AREA WEATHER ROUNDUP
NATIONAL WEATHER SERVICE MIDLAND TX
200 AM CST THU DEC 08 2016

...IN SOUTHWEST TEXAS AND SOUTHEAST NEW MEXICO...

CITY           SKY/WX    TMP DP  RH WIND       PRES   REMARKS
ALPINE         CLOUDY    37  37  98 NE16      30.33R WCI  28
ANDREWS        CLOUDY    32  21  65 NE20G26   30.40R WCI  20
ARTESIA        CLOUDY    32  25  74 N14       30.42R WCI  22
BIG SPRING     CLOUDY    35  26  69 N17       30.40R WCI  24
CARLSBAD       CLOUDY    34  29  82 N14       30.40R WCI  25
DRYDEN           N/A     47  43  86 NE13      30.26R
FORT STOCKTON  LGT RAIN  37  37 100 NE17G23   30.34R FOG     WCI  27
GUAD PASS      HVY SNOW  30  32 100 NE46      30.21S VSB 1/4 WCI  12
HOBBS          CLOUDY    30  25  80 NE17      30.40R WCI  18
MARFA          CLOUDY    38  37  97 N22G30    30.24R WCI  27
MIDLAND AIRPK  CLOUDY    35  23  62 NE23      30.39R WCI  23
MIDLAND INTL   CLOUDY    35  22  58 NE25      30.37R WCI  23
ODESSA         CLOUDY    34  24  67 NE21G31   30.37R WCI  22
PECOS          DRIZZLE   37  35  93 NE13      30.39R WCI  29
PRESIDIO       FAIR      56  41  58 NE10      30.13R
SEMINOLE       CLOUDY    31  21  66 NE17G25   30.41R WCI  20
SNYDER         CLOUDY    31  22  70 NE20G29   30.42R WCI  19
WINK           LGT RAIN  36  30  79 NE14G23   30.37R WCI  27
$$
...OTHER STATIONS IN TEXAS...

CITY           SKY/WX    TMP DP  RH WIND       PRES   REMARKS
ABILENE        CLOUDY    34  29  82 N15G22    30.42R WCI  24
AMARILLO       CLOUDY    19  16  88 N14       30.49R WCI   6
AUSTIN         CLOUDY    52  44  74 N17G24    30.27R
BROWNSVILLE    CLOUDY    68  66  93 N7        30.02S
CORPUS CHRISTI LGT RAIN  58  57  97 N21G29    30.10R
DALLAS FTW     CLOUDY    38  27  64 N20G30    30.42R WCI  28
DEL RIO        CLOUDY    52  48  86 NW6       30.22R
EL PASO        CLOUDY    49  34  56 E17G23    30.16R
HOUSTON INT    LGT RAIN  55  53  93 N14       30.19S FOG
LUBBOCK        CLOUDY    27  18  69 NE15      30.43R WCI  15
SAN ANGELO     CLOUDY    40  32  73 N18G28    30.35R WCI  31
SAN ANTONIO    CLOUDY    52  45  77 N18G29    30.22R
WACO           CLOUDY    44  39  82 N22G29    30.36R WCI  35
WICHITA FALLS  NOT AVBL
$$
...OTHER LOCATIONS IN NEW MEXICO...

CITY           SKY/WX    TMP DP  RH WIND       PRES   REMARKS
ALAMAGORDO     NOT AVBL
ALBUQUERQUE    CLOUDY    29  13  51 E18       30.24R WCI  16
CANNON AFB     CLOUDY    21  19  90 NE17      30.42R WCI   7
CLOVIS         CLOUDY    21  14  73 NE17G23   30.42S WCI   7
HOLLOMAN AFB   PTCLDY    42  26  53 NW12      30.21R WCI  35
ROSWELL        CLOUDY    32  19  58 N10       30.42R WCI  24
RUIDOSO        CLOUDY    18  12  79 SE16      30.30R WCI   3
SANTA FE       CLOUDY    17   9  70 S13       30.26S WCI   4
TRUTH OR CONSE PTCLDY    39  19  44 NE13      30.16S WCI  31
TUCUMCARI      CLOUDY    22  14  71 NE12      30.45R WCI  10
$$



USA.gov is the U.S. government's official web portal to all federal, state and local government web resources and services.